STARLINK-1555, 46032

Orbit data source: Space-Track

STARLINK-1555, 46032 is a payload satellite owned by SpaceX/Seattle (US) in LEO that was launched on Fri, 07 Aug 2020 UTC via an FALCON 9 launch vehicle from the Air Force Eastern Test Range (AFETR). Payload-class satellites include a variety of spacecraft equipped with specific instruments for various scientific and technological missions. These include communications satellites like Starlink; space stations such as the ISS; scientific satellites like the Hubble; Earth observation satellites from companies like Planet Labs, Umbra, and HawkEye 360; GPS; miniature CubeSats for education and research; and military/defense satellites.

Loading next visibility...
Identifier
46032, 2020-055F
Orbit
LEO
Country
Flag of USUS
Related business
Manufacturer
SpaceX/Seattle
Mission
Operational Commercial Communications
Bus & Motor
STARLINK, Unknown motor
Mass
260 kg wet, ~248 kg dry
Launch date (UTC)
2020-08-07 (6 years ago)
Launch vehicle
FALCON 9
Launch site
Air Force Eastern Test Range (AFETR)
Object type
Payload
Rocket body
Debris
Shape & HBR
Box + 1 Pan, 10.1 m
Radar Cross Section
13.562 m², Large (>1 m²)

Expand to show TLE details & history
Last TLE update: 10 hours ago

TLE from 10 hours ago
0 STARLINK-1555
1 46032U 20055F   26125.65056455  .00002227  00000-0  87303-4 0  9997
2 46032  53.1596 222.1179 0001557  74.5112 285.6060 15.30195202317611
Epoch: 2026-05-05T15:36Z
TLE epoch observation values (Epoch: 2026-05-05T15:36:48.777Z)
Latitude
-0.00005°
Longitude
124.39226°
Altitude
475.842 km
Speed
7.629 km/s
True Right ascension
14h 48m 28s
True Declination
0° 00' 00"
Sunlit
Object was in full shadow at epoch
Visualization orbit readout
Latitude
Unknown
Longitude
Unknown
Altitude
Unknown
Speed
Unknown
Apparent Right ascension
Unknown
Apparent Declination
Unknown
Sunlit
N/A
Visualization observer readout
Local Sidereal Time
09:05:20
Azimuth
Unknown
Elevation
Unknown
Doppler factor
Unknown
Orbital elements
Apogee altitude
476.553 km
Perigee altitude
474.419 km
Semi-major axis
6,853.623 km
Eccentricity
0.00016
Inclination
53.1596°
RAAN
222.1179°
Arg. of periapsis
74.5112°
True anomaly
285.58881°
Mean anomaly
285.606°
Eccentric anomaly
285.59741°
Mean motion
3.82528 °/min
Orbital period
94.11 mins
BSTAR
0.000087303
Loading maneuver chart data...
Computing Atmospheric mass density...
Loading historical data...
Loading historical data...
Loading historical data...
Loading historical data...
Loading historical data...
Loading historical data...
Loading historical data...

Documentation

Showing up to 5 results
|